Location: Green River State Wildlife Area
(41.6390°N, 89.5080°W)
Time: 07:27:53
(UTC-05:00)

Daily predictions for brighter satellites

Satellite Brightness Start Highest point End
(mag) Time Altitude Azimuth Time Altitude Azimuth Time Altitude Azimuth
Cosmos 2285 Rocket 4.1 21:02:43 10° S 21:08:55 60° ESE 21:15:07 10° NNE
USA 238 DEB 4.4 21:03:16 10° NNW 21:10:08 47° NE 21:17:05 10° ESE
USA 238 4.4 21:03:23 10° NNW 21:10:14 47° NE 21:17:10 10° ESE
Cosmos 2266 Rocket 4.1 21:04:00 10° N 21:10:26 88° W 21:16:44 10° S
Cosmos 2084 3.4 21:08:12 10° NNW 21:12:02 62° NE 21:15:51 10° SE
Lacrosse 5 2.1 21:09:07 10° SW 21:14:11 78° NW 21:19:16 10° NE
Cosmos 1346 Rocket 3.5 21:11:05 10° N 21:14:51 38° ENE 21:18:40 10° SE
Cosmos-2242 3.6 21:12:34 10° N 21:16:45 41° ENE 21:20:54 10° SSE
Aureole 1 Rocket 3.1 21:17:38 10° SSW 21:20:49 60° WNW 21:24:44 10° NNE
Meteor 1-24 Rocket 4.0 21:16:00 10° S 21:21:56 62° E 21:27:51 10° NNE
Cosmos 494 Rocket 4.5 21:18:05 10° S 21:22:59 41° ESE 21:27:54 10° NNE
H-2A R/B 2.6 21:19:15 10° SE 21:24:18 48° ENE 21:29:30 10° N
Timation 1 Rocket 4.5 21:19:16 10° S 21:25:02 54° ESE 21:30:51 10° NE
Cosmos 1269 Rocket 4.0 21:21:36 10° SSW 21:26:54 79° ESE 21:32:14 10° NNE
Cosmos 2082 Rocket 4.4 21:25:21 10° NNE 21:27:25 12° NE 21:29:29 10° ENE
Helios 1B rocket 4.4 21:30:47 10° ENE 21:32:20 12° E 21:33:41 10° ESE
Centaur D-1AR AC-36 4.4 21:21:34 10° WSW 21:33:41 19° SW 21:38:19 10° S
Cosmos 1908 3.8 21:31:15 10° N 21:34:56 41° ENE 21:38:07 13° SSE
ATLAS 2AS CENTAUR R/B 3.1 21:29:24 10° SSW 21:37:12 84° ESE 21:45:22 10° NE
Cosmos 1340 3.8 21:36:47 10° NNE 21:40:07 28° ENE 21:42:33 15° SE
In-Cosmos 22 4.4 21:38:14 10° SSW 21:43:46 75° W 21:49:29 10° N
Meteor 2-5 Rocket 4.5 21:38:09 10° SSW 21:44:00 59° WNW 21:49:51 10° N
Iridium 4 Rocket 4.0 21:38:34 10° S 21:44:09 66° W 21:49:19 10° N
Cosmos 1553 Rocket 4.2 21:38:35 10° SSE 21:44:23 50° E 21:50:13 10° NNE
Cosmos 1953 Rocket 4.0 21:42:48 10° SSW 21:47:07 64° W 21:51:30 10° N
MetOp-B 4.1 21:43:42 11° SSE 21:48:55 79° ENE 21:54:17 10° N
Cosmos 1437 3.2 21:46:26 10° NNW 21:49:33 58° W 21:52:33 11° S
ERS-1 Rocket 3.1 21:46:45 14° SSE 21:51:01 60° ENE 21:55:59 10° N
DMSP B5D2-2 4.4 21:46:57 10° NNE 21:51:57 44° E 21:56:33 12° S
Cosmos 1674 2.6 21:50:48 10° S 21:54:36 80° E 21:58:27 10° N
Meteor 2-1 Rocket 4.3 21:52:44 10° N 21:58:41 77° E 22:03:44 15° SSE
Cosmos 1300 4.0 21:56:36 10° NNE 21:59:48 25° ENE 22:01:28 19° ESE
Meteor 2-10 4.3 21:55:18 10° N 22:00:42 60° ENE 22:04:53 18° SSE
Cosmos 2251 Rocket 3.8 21:57:00 10° S 22:02:06 47° ESE 22:07:11 10° NNE
USA 215 3.9 21:58:50 13° SSE 22:04:20 45° SW 22:10:37 10° WNW
Cosmos 1726 2.1 22:01:09 10° N 22:04:54 69° E 22:07:13 22° SSE
Terra 3.1 22:02:30 16° ESE 22:05:14 27° ENE 22:09:12 10° N
Resurs 01 Rocket 4.1 22:02:55 10° SW 22:05:54 18° W 22:08:55 10° NW
Cosmos 2221 3.8 22:02:34 10° NNE 22:06:14 26° ENE 22:08:10 19° ESE
Cosmos 921 Rocket 3.5 22:05:38 10° NNW 22:10:04 60° WSW 22:13:35 16° S
H-2A R/B 4.4 22:09:35 18° SE 22:10:40 18° SE 22:21:21 10° E
NOSS 2-2 (E) 4.2 22:11:47 25° SE 22:12:34 27° ESE 22:16:09 10° NE
CENTAUR R/B 4.2 22:05:36 10° NNW 22:12:41 36° NE 22:20:13 10° ESE
OAO 3 Rocket 4.0 22:08:55 10° WSW 22:13:23 34° S 22:15:31 24° SE
NOSS 3-4 (A) 3.6 22:08:51 10° S 22:14:44 49° ESE 22:20:50 10° NE
NOSS 3-4 (C) 3.6 22:08:58 10° S 22:14:49 49° ESE 22:20:54 10° NE
Meteor 1-29 4.3 22:12:50 10° NE 22:15:32 22° E 22:15:42 22° E
SL-8 R/B 4.3 22:16:05 10° WSW 22:20:51 58° NNW 22:25:39 10° ENE
Cosmos 1461 3.1 22:17:01 10° SSW 22:21:33 61° ESE 22:26:15 10° NE
CZ-2C R/B 4.1 22:19:33 20° SE 22:22:56 39° ENE 22:28:13 10° N
ARGOS 4.2 22:18:05 10° S 22:23:12 42° W 22:28:21 10° NNW
Cosmos 2278 Rocket 2.2 22:18:54 10° S 22:24:28 62° ESE 22:30:05 10° NNE
ATLAS 3B CENTAUR R/B 4.2 22:15:20 10° SW 22:30:37 32° S 22:35:03 22° SE
APEX 2.9 22:30:36 10° NNW 22:33:48 82° WSW 22:35:06 38° SSE
IGS 5A 3.6 22:33:19 33° SE 22:34:58 58° ENE 22:39:04 10° N
Meteor 1-21 Rocket 4.3 22:30:00 15° S 22:34:59 86° E 22:40:48 10° N
Cosmos 220 Rocket 4.3 22:31:41 10° SSW 22:35:52 64° WNW 22:40:04 10° NNE
Cosmos 1745 Rocket 4.1 22:33:19 10° N 22:39:39 78° W 22:43:58 21° S
Meteor 2-13 Rocket 4.4 22:33:47 10° N 22:39:54 85° W 22:43:50 23° S
Cosmos 1844 Rocket 4.4 22:36:16 10° WSW 22:41:22 33° WNW 22:46:27 10° N
COSMOS 2406 3.8 22:37:22 10° NW 22:42:55 49° WSW 22:46:26 22° S
NOSS 2-2 (D) 3.5 22:42:35 41° SSE 22:43:20 47° ESE 22:47:23 10° NE
CARTOSAT-1 3.5 22:43:53 36° SSE 22:45:34 76° ENE 22:49:54 10° N
SL-14 R/B 3.3 22:44:52 29° SSW 22:46:47 75° W 22:50:43 10° N
SPOT 5 3.4 22:45:39 24° S 22:48:40 61° W 22:53:55 10° NNW
ATLAS 3B R/B 3.0 22:50:20 10° NW 22:56:45 54° WSW 23:00:07 28° S
Cosmos 1076 Rocket 3.4 22:55:44 45° SSE 22:56:53 66° E 23:01:05 10° NNE
ATLAS 5 CENTAUR R/B 1.5 22:55:48 26° SSW 22:58:19 74° ESE 23:03:10 10° NE
SL-27 R/B 3.6 22:56:31 10° N 22:59:50 32° ENE 23:00:13 31° E
SPOT 1/Viking Rocket 4.3 23:00:46 23° SSW 23:03:36 46° W 23:08:33 10° NNW
H-2A R/B 4.1 22:59:53 10° SW 23:03:56 22° W 23:08:06 10° NW
BREEZE-M DEB (TANK) 4.4 23:01:13 10° W 23:06:38 33° NNW 23:09:07 10° NE
Helios 1A 4.2 23:05:04 24° SW 23:06:52 35° W 23:10:45 10° NNW
Cosmos 1626 2.0 23:06:16 57° SSW 23:06:58 85° W 23:10:42 10° N
Helios 1B rocket 3.0 23:03:55 10° N 23:07:57 55° WNW 23:10:01 26° SW
Cosmos 1408 Rocket 4.4 23:07:39 34° ESE 23:08:01 34° E 23:12:04 10° NNE
SL-08 ROCKET BODY 4.4 23:02:02 10° N 23:08:15 72° E 23:10:52 36° SSE
Cosmos 2297 3.8 23:06:55 37° SSE 23:08:48 54° ESE 23:14:22 10° NNE
Mayak 1.1 23:07:14 10° ENE 23:08:13 12° E 23:08:13 12° E
NOSS 2-2 (C) 3.2 23:07:58 37° SW 23:09:24 90° W 23:13:43 10° NE
Cosmos 1766 Rocket 4.0 23:08:57 42° ESE 23:09:30 44° E 23:13:47 10° NNE
Cosmos 1241 Rocket 4.5 23:07:45 32° S 23:10:26 56° ESE 23:16:32 10° NE
Cosmos 1703 3.6 23:12:18 47° E 23:12:19 47° E 23:16:05 10° NNE
Cosmos 2082 Rocket 2.4 23:07:00 10° NNW 23:12:41 65° ENE 23:14:50 38° SE
NOSS 3-2 (A) 4.4 23:05:23 10° NW 23:12:51 56° WSW 23:17:06 29° S
Cosmos 1709 Rocket 3.9 23:06:41 10° N 23:12:55 86° W 23:15:45 35° S
Cosmos 1833 Rocket 2.7 23:07:39 10° NNW 23:13:17 74° ENE 23:15:19 40° SE
YAOGAN 11 4.1 23:14:27 49° S 23:15:41 86° WSW 23:20:15 10° NNW
Cosmos 2058 3.9 23:17:53 31° E 23:17:53 31° E 23:21:24 10° NNE
Cosmos 2151 4.3 23:18:32 26° E 23:18:32 26° E 23:21:54 10° NNE
CZ-2C R/B 2.5 23:13:51 10° NNE 23:19:17 74° ESE 23:21:06 42° S
BREEZE-M R/B 4.4 23:14:26 10° WNW 23:20:40 69° NNE 23:25:12 20° ESE
Meteor 1-27 4.5 23:15:15 10° N 23:21:02 59° ENE 23:22:58 40° SE
H-2A R/B 4.4 23:23:20 10° ENE 23:24:27 11° ENE 23:25:33 10° NE
Cosmos 2074 Rocket 4.4 23:20:56 10° N 23:27:03 52° ENE 23:29:11 37° SE
Meteor 2-19 Rocket 4.4 23:22:01 10° N 23:28:12 90° WSW 23:30:33 41° S
Aureole 3 Rocket 4.2 23:24:36 27° SSW 23:29:04 79° W 23:34:39 10° N
Cosmos 1943 Rocket 4.3 23:30:13 11° E 23:30:13 11° E 23:30:54 10° E
Cosmos 1455 2.1 23:30:21 10° N 23:34:03 72° ENE 23:34:03 72° ENE
NOSS 3-2 (C) 4.4 23:31:19 10° NW 23:38:44 53° WSW 23:42:13 33° S
EO 1 Delta rocket 4.3 23:32:19 10° N 23:38:56 85° W 23:40:55 42° SSW
RESURS DK-1 2.6 23:41:55 51° WSW 23:42:43 66° WNW 23:46:52 10° NNE
Terra 3.0 23:41:23 27° SW 23:42:50 33° W 23:47:07 10° NNW
Cosmos 2221 4.2 23:40:11 10° NW 23:43:41 24° W 23:45:02 21° WSW
Cosmos 1992 Rocket 4.3 23:42:38 10° NNW 23:47:44 56° WSW 23:48:50 46° SSW
COBE Rocket 4.1 23:49:05 10° N 23:54:11 75° WNW 23:55:35 48° SSW
Cosmos 1140 Rocket 4.2 23:55:09 37° E 23:55:09 37° E 23:59:46 10° NE
